STARLINK-34128

Last updated on Mon Jun 09 2025 00:02:04 GMT+0000 (Coordinated Universal Time)

1 63892U 25095C 25158.81431818 -.00305513 00000+0 -58526-2 0 9990 2 63892 42.9984 289.0513 0000949 283.9617 76.1137 15.48348946 5745
UTC large
Height (km)
Speed (km/s)
/
Latitude / Longitude
Inclination (degrees)
Orbital Period (minutes)
Azimuth
Elevation
Range (km)
Doppler Factor

Next 0 passes for location: London (51.5072 / 0.1276)

Sorry there are no passes over London.